Abel Santa Maria, Cuba

8:06 PM CST on February 21, 2018 (GMT -0500)
Avenida Rancho Boyeros | | Change Station

Elev 206 ft 22.99 °N, 82.41 °W | Updated 1 minute ago

Partly Cloudy
Partly Cloudy
66.7 °F
Feels Like 66.7 °F
N
11.2
Wind Variable Wind from NNW
Gusts 19.9 mph

Today
High -- | Low -- °F
--% Chance of Precip.
Yesterday
High -- | Low -- °F
Precip. -- in
Pressure 30.21 in
Visibility 6.2 miles
Clouds Few 2500 ft
Dew Point 56 °F
Humidity 69%
Rainfall 0.00 in
Snow Depth Not available.
6:57 AM 6:29 PM
Waxing Crescent, 36% visible
METAR MUHA 220055Z 08011KT 9999 FEW025 24/21 Q1023
Pressure 30.21 in
Visibility 6.2 miles
Clouds Few 2500 ft
Dew Point 56 °F
Humidity 69%
Rainfall 0.00 in
Snow Depth Not available.
6:57 AM 6:29 PM
Waxing Crescent, 36% visible
METAR MUHA 220055Z 08011KT 9999 FEW025 24/21 Q1023

Get Severe Weather Alerts

Thanks for signing up!

Be on the lookout for a verification email in your inbox.

You'll start receiving the daily forecast at 6 AM.

×

10-Day Weather Forecast

No radar image for this location.
×

Almanac

Astronomy

Feb. 21, 2018 Rise Set
Actual Time
Civil Twilight
Nautical Twilight
Astronomical Twilight
Moon
Length of Visible Light
Length of Day
Tomorrow will be .
, % of the Moon is Illuminated

Today's Extremes

Country Highs Country Lows

Community

WunderPhotos

Category 6

Welcome to Category 6. This is the collective home for Weather Underground's featured writeups by Dr. Jeff Masters (right), Bob Henson (left), Chris Burt, and other regular contributors.

Nearby

Air Quality

  Air Quality AQ Index Pollutant
Not available.

Snow Depth

Station Depth Elevation

Earthquake Activity

City Distance Mag. Time & Date
Minimum magnitude displayed is 2.5.

Coastal Water Temperatures

Place Temperature

Stations

Nearby Weather Stations

Station Location Temp. Windchill Dew Point Humidity Wind Precip. Elev Updated Type